Weather observations for the past three days for
Atka, Atka Airport
Metric (Imperial)
Date Time (hdt) Wind (kph) Vis. (km) Weather Sky Cond. Temperature (ºC) Relative Humidity Wind Chill (°C) Heat Index (°C) Pressure Precipitation (cm)
Air Dwpt 6 hour altimeter (cm) sea level (mb) 1 hr 3 hr 6 hr
Max. Min.
21 06:56 E 7 16.09 Overcast OVC007 4.4 4.4 100% 3 76.61 1021.2
21 05:56 E 7 16.09 Overcast OVC009 4.4 4.4 100% 3 76.61 1021.4
21 04:56 Calm 16.09 Overcast OVC009 4.4 3.9 97% 76.63 1021.5
21 03:56 Calm 16.09 Overcast OVC009 4.4 3.9 97% 76.61 1021.3
21 02:56 S 6 16.09 Overcast OVC007 4.4 4.4 6.1 3.9 100% 76.61 1021.2
21 01:56 E 7 16.09 Overcast OVC005 4.4 4.4 100% 3 76.58 1021.0
21 00:56 E 11 16.09 Overcast OVC007 5 5 100% 3 76.56 1020.7
20 23:56 SE 11 16.09 Overcast OVC007 5.6 5.6 100% 3 76.56 1020.7
20 22:56 NE 6 16.09 Overcast OVC007 6.1 6.1 100% 76.53 1020.1
20 21:56 NE 6 16.09 Overcast OVC007 6.1 6.1 100% 76.5 1020.0
20 20:56 Calm 16.09 Overcast OVC003 5.6 5.6 6.7 5 100% 76.5 1020.0
20 19:56 E 7 16.09 Overcast OVC003 5 5 100% 4 76.48 1019.7
20 18:56 E 11 16.09 Overcast OVC003 5.6 5.6 100% 3 76.43 1018.9
20 07:56 W 9 16.09 Overcast OVC003 4 0 0% 2 76.2 1015.8
20 06:56 W 15 12.87 Overcast OVC003 4 0 0% 1 76.17 1015.4
20 05:56 W 17 14.48 Overcast OVC005 4.4 4.4 100% 1 76.15 1015.3
20 04:56 W 13 16.09 Overcast OVC005 4.4 4.4 100% 2 76.12 1014.9
20 03:56 W 13 16.09 Overcast OVC007 5 5 100% 2 76.12 1014.8
20 02:56 W 13 16.09 Overcast OVC007 5 0 6.7 5 0% 2 76.1 1014.6
20 01:56 W 11 14.48 Overcast OVC005 6 0 0% 4 76.07 1014.3
20 00:56 W 11 9.66 Overcast with Haze OVC009 6 0 0% 4 76.07 1014.2
19 23:56 W 20 6.44 Fog/Mist OVC013 5.6 5.6 100% 2 76.02 1013.6
19 22:56 W 19 4.83 Fog/Mist FEW004 OVC013 6.1 6.1 100% 3 76 1013.1
19 21:56 W 22 16.09 Overcast OVC017 6.1 6.1 100% 3 75.95 1012.5
19 20:56 W 22 16.09 Overcast FEW004 BKN011 OVC019 6.7 6.7 9.4 6.1 100% 3 75.92 1012.1
19 19:56 W 26 16.09 Overcast OVC017 6.7 6.1 96% 3 75.9 1011.9
19 18:56 W 30 16.09 Overcast OVC014 7.2 5.6 90% 3 75.87 1011.5
19 17:56 W 22 16.09 Overcast BKN018 OVC023 7.8 6.1 89% 5 75.87 1011.4
19 16:56 W 26 16.09 Overcast OVC019 7.2 5.6 90% 4 75.84 1011.2
19 15:56 W 24 16.09 Overcast SCT019 OVC029 8.9 6.7 86% 6 75.84 1011.0
19 14:56 W 31 16.09 Overcast OVC015 7.2 6.1 8.9 6.7 93% 3 75.82 1010.9
19 13:56 W 20 16.09 Overcast OVC018 8.3 6.7 90% 5 75.84 1011.0
19 12:56 W 22 16.09 Overcast OVC014 7.2 6.7 97% 4 75.84 1011.0
19 11:56 W 11 16.09 Overcast OVC012 8.3 7.2 93% 7 75.82 1010.8
19 10:56 W 13 16.09 Overcast OVC012 8.3 8.3 100% 6 75.79 1010.6
19 09:56 W 19 16.09 Overcast OVC012 7 0 0% 4 75.79 1010.4
19 08:56 W 13 16.09 Overcast OVC012 7 0 6.7 6.1 0% 5 75.77 1010.2
19 07:56 W 17 11.27 Overcast BKN003 BKN008 OVC015 6 0 0% 3 75.77 1010.1
19 06:56 NW 9 16.09 Overcast OVC007 6 0 0% 4 75.77 1010.2
19 05:56 W 11 16.09 Overcast FEW005 OVC012 6 0 0% 4 75.77 1010.1
19 04:56 Vrbl 7 16.09 Overcast FEW003 OVC010 6 0 0% 5 75.77 1010.0
19 03:56 N 11 16.09 Overcast OVC013 6 0 0% 4 75.74 1009.9
19 02:56 W 22 9.66 Fog/Mist SCT003 OVC013 6.1 6.1 6.7 6.1 100% 3 75.77 1010.0
19 01:56 W 11 16.09 Overcast OVC009 6.7 6.7 100% 5 75.77 1010.1
19 00:56 SW 7 16.09 Overcast OVC011 6.7 6.7 100% 6 75.77 1010.2
18 23:56 W 17 16.09 Overcast OVC013 6.7 6.7 100% 4 75.77 1010.0
18 22:56 W 19 16.09 Overcast OVC015 6.7 6.7 100% 4 75.72 1009.6
18 21:56 W 17 16.09 Overcast OVC015 6.7 6.7 100% 4 75.72 1009.5
18 20:56 Vrbl 9 16.09 Overcast OVC015 6.7 6.7 9.4 6.7 100% 5 75.72 1009.4
18 19:56 E 9 16.09 Overcast OVC006 6.7 6.7 100% 5 75.72 1009.4
18 18:56 E 9 16.09 Overcast OVC010 7.2 6.7 97% 6 75.69 1009.1
18 17:56 E 13 16.09 Overcast OVC012 7.8 6.7 93% 6 75.69 1009.0
18 16:56 W 19 16.09 Overcast OVC016 8.9 7.2 89% 6 75.69 1009.0
18 15:56 W 19 G 26 16.09 Overcast OVC018 8.9 7.2 89% 6 75.69 1009.0
18 14:56 W 13 16.09 Overcast OVC010 7.8 7.2 8.9 6.1 96% 6 75.69 1009.1
18 13:56 W 9 16.09 Overcast OVC008 8.3 7.8 97% 7 75.69 1009.2
18 12:56 W 13 16.09 Overcast OVC010 8.3 7.8 97% 6 75.69 1009.1
18 11:56 W 13 16.09 Overcast BKN008 OVC013 7.8 7.8 100% 6 75.69 1009.0
18 10:56 Vrbl 7 16.09 Overcast OVC009 7.8 7.8 100% 7 75.69 1008.9
18 09:56 W 13 16.09 Overcast OVC011 7 0 0% 5 75.67 1008.8
18 08:56 W 9 16.09 Light Rain FEW003 SCT013 OVC030 6 0 6.1 5.6 0% 4 75.67 1008.7
18 07:56 W 11 16.09 Overcast FEW005 OVC035 6 0 0% 4 75.64 1008.4
Date Time (hdt) Wind (kph) Vis. (km) Weather Sky Cond. Air Dwpt Max. Min. Relative Humidity Wind Chill (°C) Heat Index (°C) altimeter (cm) sea level (mb) 1 hr 3 hr 6 hr
6 hour
Temperature (ºC) Pressure Precipitation (cm)